Location: Chervonnoye
(48.6000°N, 34.4000°E)
Time: 21:14:49
(UTC+00:00)

RS-44 - Pass Details

Date: 08 December 2021
Orbit: 1175 x 1510 km, 82.5° (Epoch: 19 January)

Event Time Altitude Azimuth Distance (km) Brightness Sun altitude
Rises 15:57:25 0° 166° (SSE) 4,084 ? -20.6°
Reaches altitude 10° 16:00:11 10° 161° (SSE) 3,105 ? -21.0°
Maximum altitude 16:06:58 48° 90° (E) 1,509 ? -22.1°
Drops below altitude 10° 16:13:49 10° 19° (NNE) 3,134 ? -23.2°
Sets 16:16:37 0° 14° (NNE) 4,125 ? -23.7°
